AFL6555 UHWW-UHHH

Flight info

Callsign AFL6555
Flight time 0h 53m
Altitude 37000
Route DOLMA2P DOLMA B356 TD B355 ARDEL ARDEL6D
Aircraft A359/H-SDE2E3GHIJ3J4J5LM1ORWXY/LB1D1

Departure

Time 2026-04-26 09:12
Airport Vladivostok International Airport (UHWW)

Arrival

Time 2026-04-26 10:05
Airport Khabarovsk Novy Airport (UHHH)
Time Latitude Longitude Altitude Speed Heading
2026-04-26 08:34 43.39757 132.16552 76 ft 0 kts 152°
2026-04-26 09:04 43.39772 132.16541 65 ft 4 kts 152°
2026-04-26 09:04 43.39795 132.16524 76 ft 2 kts 152°
2026-04-26 09:04 43.39814 132.16506 65 ft 4 kts 123°
2026-04-26 09:04 43.39820 132.16475 76 ft 4 kts 72°
2026-04-26 09:05 43.39808 132.16442 65 ft 4 kts 57°
2026-04-26 09:05 43.39801 132.16427 76 ft 0 kts 61°
2026-04-26 09:06 43.39802 132.16429 76 ft 2 kts 60°
2026-04-26 09:07 43.39827 132.16489 71 ft 9 kts 61°
2026-04-26 09:07 43.39856 132.16561 76 ft 8 kts 61°
2026-04-26 09:07 43.39884 132.16629 74 ft 8 kts 61°
2026-04-26 09:07 43.39909 132.16692 76 ft 7 kts 61°
2026-04-26 09:08 43.39932 132.16750 76 ft 7 kts 61°
2026-04-26 09:08 43.39954 132.16804 72 ft 7 kts 61°
2026-04-26 09:08 43.39983 132.16877 76 ft 11 kts 61°
2026-04-26 09:08 43.40024 132.16980 67 ft 14 kts 61°
2026-04-26 09:09 43.40084 132.17079 72 ft 12 kts 18°
2026-04-26 09:09 43.40160 132.17050 65 ft 11 kts 334°
2026-04-26 09:09 43.40224 132.17005 66 ft 10 kts 332°
2026-04-26 09:09 43.40283 132.16962 65 ft 9 kts 332°
2026-04-26 09:10 43.40339 132.16923 67 ft 9 kts 333°
2026-04-26 09:10 43.40393 132.16883 74 ft 9 kts 332°
2026-04-26 09:10 43.40428 132.16828 63 ft 7 kts 274°
2026-04-26 09:10 43.40417 132.16771 64 ft 6 kts 252°
2026-04-26 09:11 43.40400 132.16721 65 ft 6 kts 242°
2026-04-26 09:11 43.40323 132.16525 64 ft 54 kts 241°
2026-04-26 09:11 43.40034 132.15812 63 ft 114 kts 241°
2026-04-26 09:11 43.39560 132.14642 119 ft 161 kts 240°
2026-04-26 09:12 43.38977 132.13296 646 ft 166 kts 239°
2026-04-26 09:12 43.38255 132.12083 1297 ft 167 kts 218°
2026-04-26 09:12 43.37097 132.11547 1560 ft 192 kts 180°
2026-04-26 09:12 43.35838 132.12246 1857 ft 210 kts 137°
2026-04-26 09:13 43.35178 132.14033 2345 ft 219 kts 97°
2026-04-26 09:13 43.35151 132.16202 2728 ft 238 kts 86°
2026-04-26 09:13 43.35255 132.18570 3163 ft 254 kts 86°
2026-04-26 09:13 43.35353 132.21025 3846 ft 260 kts 86°
2026-04-26 09:14 43.35438 132.23542 4541 ft 266 kts 87°
2026-04-26 09:14 43.35517 132.26105 5212 ft 272 kts 87°
2026-04-26 09:14 43.35589 132.28726 5910 ft 276 kts 88°
2026-04-26 09:14 43.35649 132.31392 6622 ft 282 kts 88°
2026-04-26 09:15 43.35726 132.34069 7366 ft 286 kts 87°
2026-04-26 09:15 43.35796 132.36823 8129 ft 290 kts 88°
2026-04-26 09:15 43.35868 132.39617 8897 ft 295 kts 88°
2026-04-26 09:15 43.36016 132.42446 9572 ft 300 kts 80°
2026-04-26 09:16 43.36763 132.45154 10143 ft 311 kts 56°
2026-04-26 09:16 43.38335 132.47270 10435 ft 328 kts 27°
2026-04-26 09:16 43.40507 132.48410 10700 ft 344 kts 11°
2026-04-26 09:16 43.42852 132.49244 11069 ft 360 kts 10°
2026-04-26 09:17 43.45317 132.50102 11748 ft 368 kts 10°
2026-04-26 09:17 43.47003 132.50702 12223 ft 374 kts 10°
2026-04-26 09:17 43.50363 132.51920 13179 ft 380 kts 10°
2026-04-26 09:17 43.52928 132.52868 13816 ft 386 kts
2026-04-26 09:18 43.55533 132.53825 14484 ft 389 kts 10°
2026-04-26 09:18 43.58160 132.54798 15133 ft 391 kts
2026-04-26 09:18 43.60815 132.55793 15701 ft 399 kts
2026-04-26 09:18 43.63498 132.56796 16288 ft 402 kts
2026-04-26 09:19 43.66215 132.57814 16906 ft 406 kts
2026-04-26 09:19 43.68923 132.58826 17495 ft 411 kts
2026-04-26 09:19 43.71695 132.59864 18121 ft 414 kts
2026-04-26 09:19 43.74487 132.60912 18775 ft 418 kts
2026-04-26 09:20 43.77311 132.61981 19322 ft 424 kts 10°
2026-04-26 09:20 43.80106 132.63425 19909 ft 435 kts 21°
2026-04-26 09:20 43.82700 132.65678 20504 ft 445 kts 33°
2026-04-26 09:20 43.85142 132.68371 21049 ft 452 kts 37°
2026-04-26 09:21 43.87513 132.71258 21612 ft 456 kts 39°
2026-04-26 09:21 43.89837 132.74204 22156 ft 460 kts 40°
2026-04-26 09:21 43.92208 132.77228 22672 ft 466 kts 39°
2026-04-26 09:21 43.94620 132.80261 23267 ft 469 kts 39°
2026-04-26 09:22 43.97043 132.83313 23818 ft 472 kts 39°
2026-04-26 09:22 43.99493 132.86386 24253 ft 476 kts 39°
2026-04-26 09:22 44.01977 132.89473 24775 ft 482 kts 39°
2026-04-26 09:22 44.04492 132.92602 25108 ft 488 kts 39°
2026-04-26 09:23 44.07031 132.95763 25552 ft 492 kts 39°
2026-04-26 09:23 44.09557 132.98910 26032 ft 495 kts 39°
2026-04-26 09:23 44.12126 133.02112 26466 ft 498 kts 39°
2026-04-26 09:23 44.14715 133.05343 26922 ft 501 kts 39°
2026-04-26 09:24 44.17322 133.08599 27347 ft 505 kts 39°
2026-04-26 09:24 44.19983 133.11803 27728 ft 507 kts 35°
2026-04-26 09:24 44.22784 133.14818 28131 ft 510 kts 34°
2026-04-26 09:24 44.25630 133.17802 28508 ft 513 kts 34°
2026-04-26 09:25 44.28505 133.20775 28944 ft 515 kts 34°
2026-04-26 09:25 44.31359 133.23710 29303 ft 518 kts 34°
2026-04-26 09:25 44.34273 133.26703 29642 ft 522 kts 34°
2026-04-26 09:25 44.37206 133.29722 30007 ft 525 kts 34°
2026-04-26 09:26 44.40151 133.32763 30348 ft 528 kts 34°
2026-04-26 09:26 44.43109 133.35822 30712 ft 530 kts 34°
2026-04-26 09:26 44.46077 133.38900 31062 ft 532 kts 34°
2026-04-26 09:26 44.49057 133.41997 31378 ft 535 kts 34°
2026-04-26 09:27 44.52046 133.45108 31684 ft 537 kts 34°
2026-04-26 09:27 44.55016 133.48204 31977 ft 540 kts 34°
2026-04-26 09:27 44.58032 133.51351 32269 ft 542 kts 34°
2026-04-26 09:27 44.61065 133.54518 32511 ft 545 kts 34°
2026-04-26 09:28 44.64107 133.57701 32778 ft 547 kts 34°
2026-04-26 09:28 44.67167 133.60906 33020 ft 550 kts 34°
2026-04-26 09:28 44.70239 133.64128 33277 ft 552 kts 34°
2026-04-26 09:28 44.73317 133.67363 33514 ft 554 kts 34°
2026-04-26 09:29 44.76365 133.70569 33763 ft 555 kts 34°
2026-04-26 09:29 44.79463 133.73829 33993 ft 557 kts 34°
2026-04-26 09:29 44.82565 133.77099 34261 ft 558 kts 34°
2026-04-26 09:29 44.85671 133.80382 34557 ft 557 kts 34°
2026-04-26 09:30 44.88763 133.83654 34919 ft 555 kts 34°
2026-04-26 09:30 44.91853 133.86926 35230 ft 554 kts 34°
2026-04-26 09:30 44.94948 133.90153 35522 ft 553 kts 33°
2026-04-26 09:30 44.98084 133.93294 35813 ft 552 kts 32°
2026-04-26 09:31 45.01236 133.96396 36090 ft 551 kts 32°
2026-04-26 09:31 45.04337 133.99438 36378 ft 550 kts 32°
2026-04-26 09:31 45.07479 134.02532 36611 ft 550 kts 32°
2026-04-26 09:31 45.10616 134.05640 36804 ft 551 kts 32°
2026-04-26 09:32 45.13752 134.08765 36934 ft 549 kts 32°
2026-04-26 09:32 45.19910 134.14947 36938 ft 538 kts 32°
2026-04-26 09:33 45.26006 134.21083 36935 ft 537 kts 32°
2026-04-26 09:33 45.32103 134.27235 36933 ft 537 kts 33°
2026-04-26 09:34 45.38146 134.33351 36933 ft 537 kts 33°
2026-04-26 09:34 45.44239 134.39530 36932 ft 538 kts 32°
2026-04-26 09:35 45.50334 134.45724 36935 ft 538 kts 33°
2026-04-26 09:35 45.56423 134.51939 36933 ft 538 kts 33°
2026-04-26 09:36 45.62467 134.58127 36933 ft 538 kts 33°
2026-04-26 09:36 45.68545 134.64362 36941 ft 538 kts 33°
2026-04-26 09:37 45.73456 134.69410 36943 ft 538 kts 33°
2026-04-26 09:37 45.78991 134.75116 36941 ft 538 kts 33°
2026-04-26 09:37 45.82019 134.78243 36720 ft 538 kts 33°
2026-04-26 09:38 45.85020 134.81346 36475 ft 539 kts 33°
2026-04-26 09:38 45.88123 134.84342 36212 ft 537 kts 24°
2026-04-26 09:38 45.91546 134.86348 35970 ft 528 kts
2026-04-26 09:38 45.95143 134.87245 35723 ft 524 kts 360°
2026-04-26 09:39 45.98783 134.87776 35464 ft 526 kts 359°
2026-04-26 09:39 46.02423 134.88257 35215 ft 525 kts 358°
2026-04-26 09:39 46.06056 134.88736 34966 ft 524 kts 358°
2026-04-26 09:39 46.09685 134.89216 34713 ft 523 kts 358°
2026-04-26 09:40 46.13301 134.89696 34468 ft 521 kts 358°
2026-04-26 09:40 46.16904 134.90175 34224 ft 519 kts 358°
2026-04-26 09:40 46.20443 134.90647 33979 ft 518 kts 358°
2026-04-26 09:40 46.24029 134.91126 33725 ft 516 kts 358°
2026-04-26 09:41 46.27598 134.91604 33479 ft 514 kts 358°
2026-04-26 09:41 46.31151 134.92080 33231 ft 513 kts 358°
2026-04-26 09:41 46.34700 134.92557 32977 ft 511 kts 358°
2026-04-26 09:41 46.38233 134.93032 32731 ft 509 kts 358°
2026-04-26 09:42 46.40568 134.93346 32569 ft 509 kts 358°
2026-04-26 09:42 46.45231 134.93974 32236 ft 507 kts 358°
2026-04-26 09:42 46.48734 134.94447 31988 ft 505 kts 358°
2026-04-26 09:42 46.52235 134.94921 31741 ft 504 kts 358°
2026-04-26 09:43 46.55724 134.95392 31493 ft 503 kts 358°
2026-04-26 09:43 46.59200 134.95863 31246 ft 499 kts 358°
2026-04-26 09:43 46.62629 134.96333 30888 ft 493 kts 358°
2026-04-26 09:43 46.66032 134.96796 30446 ft 490 kts 357°
2026-04-26 09:44 46.69412 134.97255 29989 ft 486 kts 357°
2026-04-26 09:44 46.72725 134.97706 29546 ft 483 kts 357°
2026-04-26 09:44 46.74983 134.98014 29242 ft 481 kts 357°
2026-04-26 09:44 46.79380 134.98612 28644 ft 477 kts 357°
2026-04-26 09:45 46.82656 134.98804 28194 ft 465 kts 349°
2026-04-26 09:45 46.85856 134.98507 27734 ft 458 kts 346°
2026-04-26 09:45 46.89015 134.98112 27294 ft 454 kts 346°
2026-04-26 09:45 46.91094 134.97847 26997 ft 452 kts 346°
2026-04-26 09:46 46.95264 134.97321 26399 ft 448 kts 346°
2026-04-26 09:46 46.97314 134.97065 26115 ft 445 kts 346°
2026-04-26 09:46 47.01391 134.96559 25521 ft 441 kts 346°
2026-04-26 09:46 47.04434 134.96181 25081 ft 438 kts 346°
2026-04-26 09:47 47.07459 134.95806 24631 ft 434 kts 346°
2026-04-26 09:47 47.10462 134.95433 24195 ft 431 kts 346°
2026-04-26 09:47 47.13441 134.95064 23755 ft 428 kts 347°
2026-04-26 09:47 47.16396 134.94696 23312 ft 425 kts 347°
2026-04-26 09:48 47.18346 134.94454 23029 ft 423 kts 347°
2026-04-26 09:48 47.21261 134.94092 22581 ft 419 kts 347°
2026-04-26 09:48 47.24157 134.93732 22144 ft 416 kts 347°
2026-04-26 09:48 47.27954 134.93259 21564 ft 411 kts 347°
2026-04-26 09:49 47.29872 134.93020 21270 ft 408 kts 347°
2026-04-26 09:49 47.33599 134.92556 20705 ft 404 kts 347°
2026-04-26 09:49 47.35448 134.92324 20422 ft 402 kts 347°
2026-04-26 09:49 47.38224 134.91974 19994 ft 399 kts 347°
2026-04-26 09:50 47.40984 134.91627 19569 ft 396 kts 348°
2026-04-26 09:50 47.43721 134.91285 19147 ft 393 kts 348°
2026-04-26 09:50 47.46435 134.90946 18729 ft 390 kts 348°
2026-04-26 09:50 47.49998 134.90498 18174 ft 386 kts 348°
2026-04-26 09:51 47.51797 134.90272 17892 ft 383 kts 348°
2026-04-26 09:51 47.54446 134.89939 17476 ft 380 kts 348°
2026-04-26 09:51 47.57073 134.89608 17065 ft 377 kts 348°
2026-04-26 09:51 47.59640 134.89284 16656 ft 374 kts 349°
2026-04-26 09:52 47.62224 134.88958 16240 ft 371 kts 349°
2026-04-26 09:52 47.67325 134.88311 15422 ft 365 kts 349°
2026-04-26 09:52 47.69845 134.87992 15007 ft 362 kts 350°
2026-04-26 09:53 47.72340 134.87677 14595 ft 358 kts 350°
2026-04-26 09:53 47.74809 134.87362 14184 ft 355 kts 351°
2026-04-26 09:53 47.77260 134.87048 13767 ft 352 kts 351°
2026-04-26 09:53 47.79657 134.86744 13367 ft 349 kts 351°
2026-04-26 09:54 47.82064 134.86439 12953 ft 346 kts 351°
2026-04-26 09:54 47.84447 134.86136 12536 ft 343 kts 352°
2026-04-26 09:54 47.86813 134.85841 12112 ft 339 kts 352°
2026-04-26 09:54 47.89155 134.85541 11688 ft 336 kts 353°
2026-04-26 09:55 47.91473 134.85242 11284 ft 334 kts 353°
2026-04-26 09:55 47.93778 134.84945 10873 ft 331 kts 353°
2026-04-26 09:55 47.96062 134.84654 10458 ft 328 kts 354°
2026-04-26 09:55 47.98317 134.84365 10186 ft 320 kts 354°
2026-04-26 09:56 48.00487 134.84087 10078 ft 307 kts 354°
2026-04-26 09:56 48.02540 134.83823 9950 ft 294 kts 355°
2026-04-26 09:56 48.04545 134.83564 9717 ft 287 kts 355°
2026-04-26 09:56 48.06537 134.83306 9365 ft 288 kts 355°
2026-04-26 09:57 48.08529 134.83049 9037 ft 287 kts 355°
2026-04-26 09:57 48.10516 134.82793 8715 ft 286 kts 355°
2026-04-26 09:57 48.12491 134.82541 8401 ft 284 kts 356°
2026-04-26 09:57 48.14450 134.82290 8087 ft 282 kts 356°
2026-04-26 09:58 48.16374 134.82042 7768 ft 280 kts 356°
2026-04-26 09:58 48.18314 134.81793 7475 ft 279 kts 356°
2026-04-26 09:58 48.20247 134.81552 7176 ft 277 kts 357°
2026-04-26 09:58 48.22152 134.81758 6966 ft 274 kts 16°
2026-04-26 09:59 48.23915 134.82797 6662 ft 273 kts 27°
2026-04-26 09:59 48.25611 134.84075 6234 ft 272 kts 28°
2026-04-26 09:59 48.27284 134.85365 5882 ft 269 kts 28°
2026-04-26 09:59 48.28916 134.86631 5562 ft 266 kts 30°
2026-04-26 10:00 48.30422 134.88212 5356 ft 264 kts 41°
2026-04-26 10:00 48.31802 134.90026 4958 ft 264 kts 43°
2026-04-26 10:00 48.33148 134.91858 4684 ft 256 kts 43°
2026-04-26 10:00 48.34441 134.93613 4554 ft 245 kts 43°
2026-04-26 10:01 48.35679 134.95292 4416 ft 234 kts 43°
2026-04-26 10:01 48.36861 134.96897 4291 ft 223 kts 43°
2026-04-26 10:01 48.37952 134.98473 4170 ft 212 kts 45°
2026-04-26 10:01 48.39010 134.99959 3980 ft 205 kts 43°
2026-04-26 10:02 48.40060 135.01366 3674 ft 206 kts 42°
2026-04-26 10:02 48.41168 135.02814 3142 ft 217 kts 42°
2026-04-26 10:02 48.42315 135.04368 2579 ft 227 kts 43°
2026-04-26 10:02 48.43501 135.05981 2128 ft 231 kts 41°
2026-04-26 10:03 48.44684 135.07578 1863 ft 223 kts 41°
2026-04-26 10:03 48.45790 135.09074 1628 ft 205 kts 40°
2026-04-26 10:03 48.46807 135.10453 1413 ft 188 kts 40°
2026-04-26 10:03 48.47735 135.11707 1211 ft 171 kts 40°
2026-04-26 10:04 48.48584 135.12856 1000 ft 158 kts 40°
2026-04-26 10:04 48.49361 135.13910 813 ft 146 kts 39°
2026-04-26 10:04 48.50091 135.14897 646 ft 136 kts 39°
2026-04-26 10:04 48.50786 135.15839 473 ft 133 kts 40°
2026-04-26 10:05 48.51476 135.16774 324 ft 134 kts 40°
2026-04-26 10:05 48.52152 135.17690 257 ft 122 kts 42°
2026-04-26 10:05 48.52633 135.18332 249 ft 52 kts 41°
2026-04-26 10:05 48.52746 135.18482 252 ft 12 kts 41°
2026-04-26 10:06 48.52822 135.18587 253 ft 20 kts 44°
2026-04-26 10:06 48.52882 135.18671 253 ft 0 kts 41°
2026-04-26 10:06 48.52895 135.18687 254 ft 8 kts 39°
2026-04-26 10:07 48.52962 135.18687 256 ft 10 kts 328°
2026-04-26 10:07 48.53018 135.18610 256 ft 12 kts 314°
2026-04-26 10:07 48.53049 135.18498 255 ft 12 kts 257°
2026-04-26 10:07 48.52993 135.18390 254 ft 15 kts 225°
2026-04-26 10:08 48.52915 135.18274 253 ft 17 kts 220°
2026-04-26 10:08 48.52821 135.18152 251 ft 18 kts 221°
2026-04-26 10:08 48.52789 135.18061 250 ft 10 kts 279°
2026-04-26 10:08 48.52830 135.17967 250 ft 12 kts 311°
2026-04-26 10:09 48.52888 135.17870 250 ft 13 kts 313°
2026-04-26 10:09 48.52919 135.17746 250 ft 13 kts 250°
2026-04-26 10:09 48.52852 135.17634 249 ft 15 kts 223°
2026-04-26 10:09 48.52768 135.17539 249 ft 14 kts 194°
2026-04-26 10:10 48.52674 135.17561 250 ft 14 kts 191°
2026-04-26 10:10 48.52597 135.17480 251 ft 14 kts 221°
2026-04-26 10:10 48.52547 135.17413 251 ft 0 kts 222°
2026-04-26 10:12 48.52532 135.17391 251 ft 12 kts 228°
2026-04-26 10:12 48.52531 135.17317 251 ft 7 kts 301°
2026-04-26 10:13 48.52557 135.17265 251 ft 7 kts 310°
2026-04-26 10:13 48.52571 135.17241 251 ft 0 kts 311°